FW8528 Weather Reports


Display with metric or nautical units.
time (UTC)temp
F
wind
direction
speed
MPH
gust
MPH
rain 1hr
in
rain 24hr
in
rain mn
in
humidity
%
barometer
mb
20260505195654 64 230 1.0 1.0 0.00 0.00 0.00 75 1015.4
20260505195152 64 224 2.0 2.0 0.00 0.00 0.00 77 1015.4
20260505194649 63 235 0.0 0.0 0.00 0.00 0.00 77 1015.4
20260505194145 63 201 2.0 2.0 0.00 0.00 0.00 78 1015.4
20260505193642 62 180 1.0 1.0 0.00 0.00 0.00 80 1015.4
20260505193139 63 185 1.0 1.0 0.00 0.00 0.00 83 1015.4
20260505192638 62 213 3.0 5.0 0.00 0.00 0.00 82 1015.4
20260505192135 61 241 0.0 0.0 0.00 0.00 0.00 84 1015.4
20260505191633 60 289 0.0 0.0 0.00 0.00 0.00 84 1015.4
20260505191131 59 275 0.0 0.0 0.00 0.00 0.00 86 1015.8
20260505190626 59 192 1.0 1.0 0.00 0.00 0.00 87 1015.4
20260505190121 58 240 0.0 0.0 0.00 0.00 0.00 88 1015.8
20260505185619 58 247 0.0 0.0 0.00 0.00 0.00 90 1015.8
20260505185115 57 254 0.0 0.0 0.00 0.00 0.00 91 1015.8
20260505184611 57 267 0.0 0.0 0.00 0.00 0.00 91 1015.8
20260505184108 56 230 0.0 1.0 0.00 0.00 0.00 92 1015.8
20260505183605 56 237 0.0 0.0 0.00 0.00 0.00 92 1015.8
20260505183103 56 225 1.0 1.0 0.00 0.00 0.00 92 1015.8
20260505182559 56 244 0.0 0.0 0.00 0.00 0.00 93 1015.8
20260505182056 56 256 0.0 1.0 0.00 0.00 0.00 93 1015.8
20260505181552 55 262 0.0 0.0 0.00 0.00 0.00 94 1015.4
20260505181050 55 282 0.0 0.0 0.00 0.00 0.00 94 1015.8
20260505180545 55 187 2.0 2.0 0.00 0.00 0.00 95 1015.8
20260505180044 55 216 1.0 1.0 0.00 0.00 0.00 96 1015.4
20260505175543 54 241 1.0 2.0 0.00 0.00 0.00 96 1015.4
20260505175041 54 194 2.0 2.0 0.00 0.00 0.00 97 1015.8
20260505174538 55 226 1.0 1.0 0.00 0.00 0.00 97 1015.8
20260505174033 54 248 1.0 1.0 0.00 0.00 0.00 98 1015.4
20260505173530 54 216 1.0 2.0 0.00 0.00 0.00 98 1015.4
20260505173027 53 197 1.0 1.0 0.00 0.00 0.00 98 1015.4
20260505172525 53 164 2.0 2.0 0.00 0.00 0.00 99 1015.4
20260505172021 53 211 0.0 0.0 0.00 0.00 0.00 99 1015.4
20260505171516 53 222 0.0 0.0 0.00 0.00 0.00 99 1015.4
20260505171014 53 208 1.0 1.0 0.00 0.00 0.00 99 1015.4
20260505170510 53 198 1.0 1.0 0.00 0.00 0.00 99 1015.4
20260505170007 53 203 0.0 1.0 0.00 0.00 0.00 99 1015.4
20260505165502 53 261 0.0 0.0 0.00 0.00 0.00 99 1015.1
20260505164958 53 268 0.0 0.0 0.00 0.00 0.00 99 1015.1
20260505164454 52 131 2.0 3.0 0.00 0.00 0.00 99 1015.1
20260505163952 52 152 1.0 2.0 0.00 0.00 0.00 99 1015.1
20260505163450 53 161 1.0 1.0 0.00 0.00 0.00 99 1015.1
20260505162950 53 237 0.0 0.0 0.00 0.00 0.00 99 1015.1
20260505162445 53 231 0.0 0.0 0.00 0.00 0.00 99 1015.1
20260505161942 52 233 0.0 0.0 0.00 0.00 0.00 99 1015.1
20260505161438 53 194 1.0 1.0 0.00 0.00 0.00 99 1015.1
20260505160936 52 276 0.0 1.0 0.00 0.00 0.00 99 1015.1
20260505160434 52 201 1.0 1.0 0.00 0.00 0.00 99 1015.1
20260505152910 52 217 0.0 0.0 0.00 0.00 0.00 99 1014.8
20260505152403 51 247 0.0 0.0 0.00 0.00 0.00 99 1014.8
20260505151901 52 245 0.0 0.0 0.00 0.00 0.00 99 1014.4
20260505151358 52 231 0.0 0.0 0.00 0.00 0.00 99 1014.8
20260505150855 51 223 0.0 0.0 0.00 0.00 0.00 99 1014.8
20260505150352 52 201 0.0 0.0 0.00 0.00 0.00 99 1014.8
20260505140317 51 213 0.0 0.0 0.00 0.00 0.00 99 1014.1
20260505130240 51 213 0.0 1.0 0.00 0.00 0.00 99 1013.4
20260505124731 51 232 0.0 0.0 0.00 0.00 0.00 99 1013.1
20260505124228 51 232 0.0 0.0 0.00 0.00 0.00 99 1013.4
20260505123723 51 233 0.0 0.0 0.00 0.00 0.00 99 1013.1
20260505123220 51 231 0.0 0.0 0.00 0.00 0.00 99 1013.1
20260505122717 50 231 0.0 0.0 0.00 0.00 0.00 99 1013.4
20260505122214 50 231 0.0 0.0 0.00 0.00 0.00 99 1013.4
20260505121710 50 231 0.0 0.0 0.00 0.00 0.00 99 1013.1
20260505121207 50 232 0.0 0.0 0.00 0.00 0.00 99 1013.1
20260505120703 50 230 0.0 0.0 0.00 0.00 0.00 99 1013.1
20260505120159 50 236 0.0 0.0 0.00 0.00 0.00 99 1013.1
20260505115653 50 236 0.0 0.0 0.00 0.00 0.00 99 1013.1
20260505115151 50 229 0.0 0.0 0.00 0.00 0.00 99 1013.1
20260505114648 50 209 0.0 0.0 0.00 0.00 0.00 99 1013.1
20260505114144 50 211 0.0 0.0 0.00 0.00 0.00 99 1013.1
20260505113640 50 212 0.0 0.0 0.00 0.00 0.00 99 1013.1
20260505113137 49 212 0.0 0.0 0.00 0.00 0.00 99 1013.1
20260505112633 49 212 0.0 0.0 0.00 0.00 0.00 99 1013.1
20260505112132 49 212 0.0 0.0 0.00 0.00 0.00 99 1013.1
20260505111631 49 212 0.0 0.0 0.00 0.00 0.00 99 1012.7
20260505111127 49 212 0.0 0.0 0.00 0.00 0.00 99 1012.7
20260505110624 48 212 0.0 0.0 0.00 0.00 0.00 99 1012.7
20260505110121 48 212 0.0 0.0 0.00 0.00 0.00 99 1012.7
20260505102057 48 212 0.0 0.0 0.00 0.00 0.00 99 1012.4
20260505101555 48 212 0.0 0.0 0.00 0.00 0.00 99 1012.4
20260505101051 48 212 0.0 0.0 0.00 0.00 0.00 99 1012.4
20260505100548 49 212 0.0 0.0 0.00 0.00 0.00 99 1012.4
20260505100045 48 212 0.0 0.0 0.00 0.00 0.00 99 1012.4
20260505095541 48 212 0.0 0.0 0.00 0.00 0.00 99 1012.4
20260505095037 48 212 0.0 0.0 0.00 0.00 0.00 99 1012.4
20260505094534 49 212 0.0 0.0 0.00 0.00 0.00 99 1012.7
20260505094030 49 212 0.0 0.0 0.00 0.00 0.00 99 1012.4
20260505093527 49 212 0.0 0.0 0.00 0.00 0.00 99 1012.4
20260505093024 49 212 0.0 0.0 0.00 0.00 0.00 99 1012.4
20260505092521 49 212 0.0 0.0 0.00 0.00 0.00 99 1012.4
20260505092020 49 212 0.0 0.0 0.00 0.00 0.00 99 1012.4
20260505091516 49 212 0.0 0.0 0.00 0.00 0.00 99 1012.4
20260505091014 49 212 0.0 0.0 0.00 0.00 0.00 99 1012.4
20260505090512 49 212 0.0 0.0 0.00 0.00 0.00 99 1012.4
20260505090010 49 212 0.0 0.0 0.00 0.00 0.00 99 1012.4
20260505085508 50 212 0.0 0.0 0.00 0.00 0.00 99 1012.4
20260505085006 50 212 0.0 0.0 0.00 0.00 0.00 99 1012.4
20260505084504 50 212 0.0 0.0 0.00 0.00 0.00 99 1012.4
20260505084001 50 212 0.0 0.0 0.00 0.00 0.00 99 1012.4
20260505083458 50 212 0.0 0.0 0.00 0.00 0.00 99 1012.4
20260505082954 50 211 0.0 0.0 0.00 0.00 0.00 99 1012.0
20260505082450 50 211 0.0 0.0 0.00 0.00 0.00 99 1012.0
20260505081947 50 211 0.0 0.0 0.00 0.00 0.00 99 1012.0
20260505081444 50 211 0.0 0.0 0.00 0.00 0.00 99 1012.0
20260505080940 50 211 0.0 0.0 0.00 0.00 0.00 99 1012.0
20260505080437 50 211 0.0 0.0 0.00 0.00 0.00 99 1012.4
20260505075932 51 211 0.0 0.0 0.00 0.00 0.00 99 1012.4
20260505075429 51 211 0.0 0.0 0.00 0.00 0.00 99 1012.0
20260505074927 51 211 0.0 0.0 0.00 0.00 0.00 99 1012.0
20260505074424 51 211 0.0 0.0 0.00 0.00 0.00 99 1012.0
20260505073921 51 211 0.0 0.0 0.00 0.00 0.00 99 1012.0
20260505073419 51 211 0.0 0.0 0.00 0.00 0.00 99 1011.7
20260505072916 51 211 0.0 0.0 0.00 0.00 0.00 99 1011.7
20260505072412 51 211 0.0 0.0 0.00 0.00 0.00 99 1011.7
20260505071908 51 211 0.0 0.0 0.00 0.00 0.00 99 1011.7
20260505071404 51 211 0.0 0.0 0.00 0.00 0.00 99 1011.7
20260505070903 51 211 0.0 0.0 0.00 0.00 0.00 99 1011.3
20260505070358 51 211 0.0 0.0 0.00 0.00 0.00 99 1011.3
20260505065854 51 211 0.0 0.0 0.00 0.00 0.00 99 1011.3
20260505065351 52 211 0.0 0.0 0.00 0.00 0.00 99 1011.3
20260505064848 52 211 0.0 0.0 0.00 0.00 0.00 99 1011.3
20260505064345 52 211 0.0 0.0 0.00 0.00 0.00 99 1011.3
20260505063844 52 211 0.0 0.0 0.00 0.00 0.00 98 1011.3
20260505063339 52 210 0.0 0.0 0.00 0.00 0.00 98 1011.3
20260505062835 52 210 0.0 0.0 0.00 0.00 0.00 98 1011.3
20260505062327 53 203 0.0 0.0 0.00 0.00 0.00 98 1011.3
20260505061824 53 209 0.0 0.0 0.00 0.00 0.00 97 1011.3
20260505061322 53 208 0.0 0.0 0.00 0.00 0.00 97 1010.9
20260505060820 53 225 0.0 0.0 0.00 0.00 0.00 97 1011.3
20260505060316 53 227 0.0 0.0 0.00 0.00 0.00 97 1010.9
20260505055812 53 227 0.0 0.0 0.00 0.00 0.00 96 1011.3
20260505055308 53 227 0.0 0.0 0.00 0.00 0.00 96 1010.9
20260505054806 54 237 0.0 0.0 0.00 0.00 0.00 96 1010.9
20260505054303 54 199 0.0 0.0 0.00 0.00 0.00 96 1010.9
20260505053801 54 211 0.0 0.0 0.00 0.00 0.00 96 1010.9
20260505053258 54 211 0.0 0.0 0.00 0.00 0.00 96 1010.6
20260505052754 54 211 0.0 0.0 0.00 0.00 0.00 95 1010.9
20260505052252 54 211 0.0 0.0 0.00 0.00 0.00 95 1010.9
20260505051748 54 199 0.0 1.0 0.00 0.00 0.00 94 1010.9
20260505051246 54 208 0.0 0.0 0.00 0.00 0.00 94 1010.9
20260505050744 55 200 0.0 0.0 0.00 0.00 0.00 94 1010.9
20260505050243 55 221 0.0 0.0 0.00 0.00 0.00 94 1010.6
20260505041712 57 228 0.0 0.0 0.00 0.00 0.00 89 1010.6
20260505041209 57 182 1.0 1.0 0.00 0.00 0.00 88 1010.9
20260505040706 57 200 0.0 0.0 0.00 0.00 0.00 88 1010.6
20260505040204 58 198 0.0 1.0 0.00 0.00 0.00 87 1010.6
20260505035700 58 215 0.0 0.0 0.00 0.00 0.00 87 1010.6
20260505035156 58 183 0.0 1.0 0.00 0.00 0.00 86 1010.6
20260505034653 59 207 0.0 0.0 0.00 0.00 0.00 86 1010.6
20260505034150 59 193 1.0 1.0 0.00 0.00 0.00 86 1010.3
20260505033646 59 223 0.0 0.0 0.00 0.00 0.00 85 1009.9
20260505033145 60 164 1.0 1.0 0.00 0.00 0.00 84 1010.3
20260505032643 60 198 1.0 1.0 0.00 0.00 0.00 84 1010.3
20260505032138 60 180 1.0 1.0 0.00 0.00 0.00 83 1009.9
20260505031636 61 226 0.0 0.0 0.00 0.00 0.00 81 1009.9
20260505031132 61 207 0.0 0.0 0.00 0.00 0.00 80 1009.9
20260505030629 62 206 0.0 0.0 0.00 0.00 0.00 80 1009.9
20260505030125 62 207 1.0 1.0 0.00 0.00 0.00 80 1009.9
20260505025620 62 256 0.0 0.0 0.00 0.00 0.00 77 1009.9
20260505025120 63 241 0.0 0.0 0.00 0.00 0.00 77 1010.3
20260505024617 64 205 0.0 1.0 0.00 0.00 0.00 77 1010.3
20260505024114 64 230 0.0 0.0 0.00 0.00 0.00 78 1009.9
20260505023611 64 165 1.0 1.0 0.00 0.00 0.00 76 1009.9
20260505023109 65 243 0.0 0.0 0.00 0.00 0.00 74 1009.6
20260505022606 65 181 1.0 1.0 0.00 0.00 0.00 74 1009.9
20260505022103 66 212 0.0 0.0 0.00 0.00 0.00 74 1009.9
20260505021559 66 288 1.0 1.0 0.00 0.00 0.00 71 1009.9
20260505021056 66 213 1.0 1.0 0.00 0.00 0.00 72 1009.6
20260505020556 67 223 1.0 1.0 0.00 0.00 0.00 70 1009.6
20260505020053 67 298 0.0 1.0 0.00 0.00 0.00 70 1009.9
20260505015550 68 272 1.0 1.0 0.00 0.00 0.00 69 1009.6
20260505015047 68 254 0.0 0.0 0.00 0.00 0.00 69 1009.9
20260505014544 69 227 0.0 0.0 0.00 0.00 0.00 70 1009.9
20260505014041 69 85 0.0 1.0 0.00 0.00 0.00 67 1009.6
20260505013538 70 155 1.0 2.0 0.00 0.00 0.00 68 1009.6
20260505013036 70 132 1.0 1.0 0.00 0.00 0.00 64 1009.9
20260505012533 71 166 1.0 1.0 0.00 0.00 0.00 63 1009.6
20260505012030 72 209 1.0 1.0 0.00 0.00 0.00 62 1009.6
20260505011526 71 185 1.0 1.0 0.00 0.00 0.00 65 1009.6
20260505011023 73 243 1.0 1.0 0.00 0.00 0.00 62 1009.6
20260505010518 73 228 0.0 0.0 0.00 0.00 0.00 61 1009.6
20260505010015 73 227 0.0 0.0 0.00 0.00 0.00 60 1009.9
20260505005512 74 177 1.0 1.0 0.00 0.00 0.00 60 1009.6
20260505005009 74 246 0.0 0.0 0.00 0.00 0.00 60 1009.9
20260505004506 73 143 3.0 3.0 0.00 0.00 0.00 60 1009.9
20260505004003 73 281 0.0 1.0 0.00 0.00 0.00 60 1009.9
20260505003500 74 258 0.0 0.0 0.00 0.00 0.00 59 1009.6
20260505002956 74 161 2.0 2.0 0.00 0.00 0.00 58 1009.6
20260505002452 74 137 1.0 2.0 0.00 0.00 0.00 59 1009.6
20260505001951 74 225 1.0 1.0 0.00 0.00 0.00 59 1009.6
20260505001448 75 226 1.0 2.0 0.00 0.00 0.00 57 1009.9
20260505000945 76 143 2.0 2.0 0.00 0.00 0.00 59 1009.9
20260505000443 75 204 1.0 1.0 0.00 0.00 0.00 57 1009.6
20260504235940 75 132 3.0 3.0 0.00 0.00 0.00 58 1009.9
20260504235437 75 253 2.0 3.0 0.00 0.00 0.00 57 1009.6
20260504234933 76 230 0.0 1.0 0.00 0.00 0.00 58 1009.6
20260504234431 76 159 4.0 5.0 0.00 0.00 0.00 57 1009.9
20260504233927 76 166 3.0 3.0 0.00 0.00 0.00 57 1009.9
20260504233423 76 158 2.0 2.0 0.00 0.00 0.00 57 1009.6
20260504232920 75 241 0.0 0.0 0.00 0.00 0.00 58 1009.6
20260504232417 76 234 1.0 2.0 0.00 0.00 0.00 56 1009.6
20260504231914 76 171 2.0 2.0 0.00 0.00 0.00 57 1009.6
20260504231410 76 202 2.0 2.0 0.00 0.00 0.00 58 1009.6
20260504230907 75 233 2.0 3.0 0.00 0.00 0.00 59 1009.6
20260504230404 75 197 2.0 2.0 0.00 0.00 0.00 57 1009.9
20260504225903 75 197 4.0 6.0 0.00 0.00 0.00 57 1010.3
20260504225359 76 184 2.0 3.0 0.00 0.00 0.00 61 1009.9
20260504224856 75 203 2.0 2.0 0.00 0.00 0.00 58 1009.9
20260504224353 75 204 3.0 5.0 0.00 0.00 0.00 58 1009.9
20260504223850 76 229 3.0 5.0 0.00 0.00 0.00 57 1010.3
20260504223345 76 259 2.0 2.0 0.00 0.00 0.00 58 1009.9
20260504222842 77 155 2.0 2.0 0.00 0.00 0.00 55 1010.3
20260504222338 77 193 3.0 3.0 0.00 0.00 0.00 56 1010.3
20260504221837 76 173 1.0 2.0 0.00 0.00 0.00 55 1009.9
20260504221333 75 157 4.0 5.0 0.00 0.00 0.00 56 1010.3
20260504220831 75 170 2.0 2.0 0.00 0.00 0.00 57 1009.9
20260504220327 76 201 3.0 3.0 0.00 0.00 0.00 55 1010.3
20260504215825 75 248 2.0 2.0 0.00 0.00 0.00 56 1010.3
20260504215321 75 247 0.0 0.0 0.00 0.00 0.00 59 1010.3
20260504214817 75 188 3.0 5.0 0.00 0.00 0.00 60 1010.3
20260504214314 73 82 3.0 5.0 0.00 0.00 0.00 59 1010.3
20260504213810 74 118 6.0 7.0 0.00 0.00 0.00 57 1010.6
20260504213306 74 244 0.0 1.0 0.00 0.00 0.00 58 1010.6
20260504212804 73 210 1.0 1.0 0.00 0.00 0.00 62 1010.6
20260504212300 75 101 4.0 5.0 0.00 0.00 0.00 58 1010.6
20260504211758 74 150 2.0 3.0 0.00 0.00 0.00 58 1010.6
20260504211254 74 204 2.0 2.0 0.00 0.00 0.00 57 1010.6
20260504210751 74 220 2.0 2.0 0.00 0.00 0.00 58 1010.6
20260504210249 74 167 2.0 3.0 0.00 0.00 0.00 58 1010.6
20260504205745 75 333 2.0 2.0 0.00 0.00 0.00 57 1010.6
20260504205243 74 37 1.0 1.0 0.00 0.00 0.00 59 1010.6
20260504204741 74 199 4.0 5.0 0.00 0.00 0.00 59 1010.6
20260504204239 74 244 1.0 2.0 0.00 0.00 0.00 61 1010.6
20260504203738 74 256 1.0 1.0 0.00 0.00 0.00 59 1010.6
20260504203235 73 170 3.0 3.0 0.00 0.00 0.00 59 1010.6
20260504202735 73 170 5.0 8.0 0.00 0.00 0.00 59 1010.6
20260504202233 73 253 1.0 1.0 0.00 0.00 0.00 60 1010.6
20260504201730 73 252 2.0 2.0 0.00 0.00 0.00 59 1010.6
20260504201227 75 221 2.0 2.0 0.00 0.00 0.00 59 1010.6
20260504200725 73 320 1.0 1.0 0.00 0.00 0.00 64 1010.6
20260504200220 72 248 2.0 2.0 0.00 0.00 0.00 62 1010.6